Regional Weather Roundup
Issued by NWS

Home | Current Version | Previous Version | Text Only | Print | Product List | Glossary On
Versions: 1 2 3 4 5 6 7 8 9 10 11 12 13 14 15 16 17 18 19 20 21 22 23 24 25 26 27 28 29 30 31 32 33 34 35 36 37 38 39 40 41 42 43 44 45 46 47 48 49 50
313
ASUS44 KLIX 290607
RWRLA
LOUISIANA WEATHER ROUNDUP
NATIONAL WEATHER SERVICE NEW ORLEANS LA
100 AM CDT SUN MAR 29 2015

NOTE: "FAIR" INDICATES FEW OR NO CLOUDS BELOW 12,000 FEET WITH NO
      SIGNIFICANT WEATHER AND/OR OBSTRUCTIONS TO VISIBILITY.
      SKY/WX - SKY CONDITION AND SIGNIFICANT WEATHER.
      TMP - AIR TEMPERATURE.    DP   - DEWPOINT TEMPERATURE.
      RH  - RELATIVE HUMIDITY.  PRES - PRESSURE.
      HX  - HEAT INDEX.         WCI  - WIND CHILL INDEX.

*  THESE STATIONS ARE NOT NWS OR FAA STATIONS AND ARE NOT UNDER
   NWS QUALITY CONTROL.

LAZ040-048-061>063-065-066-069-290700-
SOUTHEAST LOUISIANA

CITY           SKY/WX    TMP DP  RH WIND       PRES   REMARKS
N.O. AUDUBON     N/A     59  57  93 MISG        N/A
6HR MIN TEMP:  58; 6HR MAX TEMP:  63;

N.O. INTL ARPT CLEAR     58  49  72 SE7       30.23S
6HR MIN TEMP:  57; 6HR MAX TEMP:  64;

N.O. LAKEFRONT CLEAR     60  51  72 SE9       30.24S
6HR MIN TEMP:  59; 6HR MAX TEMP:  64;

SLIDELL        CLEAR     51  50  96 NE3       30.24S
6HR MIN TEMP:  49; 6HR MAX TEMP:  62;

BATON ROUGE    CLEAR     53  49  86 E5        30.22R
6HR MIN TEMP:  53; 6HR MAX TEMP:  69;

BOOTHVILLE     CLEAR     57  52  83 E5        30.25S
6HR MIN TEMP:  57; 6HR MAX TEMP:  60;

BELLE CHASSE   CLEAR     57  51  80 SE5       30.23S
6HR MIN TEMP:  56; 6HR MAX TEMP:  60;

BOGALUSA*        N/A     53  38  58 E8        30.28R
6HR MIN TEMP:  53; 6HR MAX TEMP:  68;

GALLIANO*      CLEAR     62  57  84 CALM      30.23S
6HR MIN TEMP:  58; 6HR MAX TEMP:  64;

NEW ROADS*     FAIR      56  50  82 SE3       30.21S
6HR MIN TEMP:  56; 6HR MAX TEMP:  70;

GONZALES*      FAIR      56  53  91 CALM      30.22S
6HR MIN TEMP:  55; 6HR MAX TEMP:  66;

HAMMOND*       CLEAR     55  48  76 CALM      30.25S
HOUMA*         CLEAR     53  52  97 NE3       30.23R
6HR MIN TEMP:  53; 6HR MAX TEMP:  62;

PORT FOURCHON* CLEAR     66  59  77 SE9       30.25S

$$

LAZ041-044-053-054-290700-
SOUTHWEST LOUISIANA

CITY           SKY/WX    TMP DP  RH WIND       PRES   REMARKS
LAKE CHARLES   CLEAR     58  57  97 SE3       30.17S
6HR MIN TEMP:  58; 6HR MAX TEMP:  68;

LAFAYETTE      CLEAR     57  55  93 CALM      30.20R
6HR MIN TEMP:  57; 6HR MAX TEMP:  67;

PATTERSON      CLEAR     57  54  88 SE8       30.20F
6HR MIN TEMP:  55; 6HR MAX TEMP:  64;

SALT POINT       N/A     59  57  93 E3        30.20R
6HR MIN TEMP:  59; 6HR MAX TEMP:  63;

NEW IBERIA     CLEAR     57  54  89 SE5       30.21R
6HR MIN TEMP:  56; 6HR MAX TEMP:  66;

CHENAULT AIRPK CLEAR     56  56  97 CALM      30.18S
6HR MIN TEMP:  56; 6HR MAX TEMP:  68;


$$

LAZ027-028-290700-
CENTRAL LOUISIANA

CITY           SKY/WX    TMP DP  RH WIND       PRES   REMARKS
FORT POLK      CLEAR     58  55  89 SE7       30.16R
6HR MIN TEMP:  58; 6HR MAX TEMP:  72;

ALEXANDRIA INT CLEAR     56  55  97 SE7       30.15S
6HR MIN TEMP:  56; 6HR MAX TEMP:  71;

ALEXANDRIA     CLEAR     55  53  93 NE3       30.18R
6HR MIN TEMP:  55; 6HR MAX TEMP:  71;


$$

LAZ001-002-290700-
NORTHWEST LOUISIANA

CITY           SKY/WX    TMP DP  RH WIND       PRES   REMARKS
SHREVEPORT     CLEAR     53  41  63 E10       30.14S
6HR MIN TEMP:  53; 6HR MAX TEMP:  74;

BARKSDALE AFB  CLEAR     52  38  60 E3        30.15S
6HR MIN TEMP:  52; 6HR MAX TEMP:  71;

DTN SHREVEPORT CLEAR     52  37  56 E9        30.15S
6HR MIN TEMP:  52; 6HR MAX TEMP:  73;


$$

LAZ014-016-290700-
NORTHEAST LOUISIANA

CITY           SKY/WX    TMP DP  RH WIND       PRES   REMARKS
MONROE         CLEAR     48  37  65 E10       30.24S
6HR MIN TEMP:  48; 6HR MAX TEMP:  61;

TALLULAH       LGT RAIN  47  34  60 E12       30.26S
6HR MIN TEMP:  47; 6HR MAX TEMP:  58; 6HR PCP: TRACE;


$$




USA.gov is the U.S. government's official web portal to all federal, state and local government web resources and services.